This is the latest recevied weather packets stored in our database for station/object DO3HUM-5. If no packets are shown the sender has not sent any weather packets the latest 10 day(s).
| Time | Temp. | Humidity | Pressure | Rain* | Wind** | Luminosity | Snow |
|---|---|---|---|---|---|---|---|
| 1777400466 | 11.67° C | 43% | 1031.4 hPa | 0 mm | - | - | - |
| 1777399865 | 12.22° C | 42% | 1031.3 hPa | 0 mm | - | - | - |
| 1777399260 | 12.22° C | 42% | 1031.2 hPa | 0 mm | - | - | - |
| 1777398659 | 13.33° C | 40% | 1031.1 hPa | 0 mm | - | - | - |
| 1777398055 | 13.33° C | 38% | 1030.9 hPa | 0 mm | - | - | - |
| 1777397452 | 13.89° C | 38% | 1030.8 hPa | 0 mm | - | - | - |
| 1777396849 | 13.89° C | 36% | 1030.7 hPa | 0 mm | - | - | - |
| 1777396248 | 14.44° C | 36% | 1030.7 hPa | 0 mm | - | - | - |
| 1777395643 | 15° C | 36% | 1030.6 hPa | 0 mm | - | - | - |
| 1777395042 | 15° C | 35% | 1030.6 hPa | 0 mm | - | - | - |
| 1777394442 | 15° C | 34% | 1030.6 hPa | 0 mm | - | - | - |
| 1777393837 | 15° C | 34% | 1030.5 hPa | 0 mm | - | - | - |
| 1777393232 | 15.56° C | 34% | 1030.6 hPa | 0 mm | - | - | - |
| 1777392629 | 15.56° C | 34% | 1030.6 hPa | 0 mm | - | - | - |
| 1777392027 | 15.56° C | 33% | 1030.6 hPa | 0 mm | - | - | - |
| 1777391424 | 15.56° C | 34% | 1030.5 hPa | 0 mm | - | - | - |
| 1777390821 | 16.11° C | 34% | 1030.5 hPa | 0 mm | - | - | - |
| 1777390216 | 15.56° C | 33% | 1030.6 hPa | 0 mm | - | - | - |
| 1777389673 | 16.11° C | 33% | 1030.6 hPa | 0 mm | - | - | - |
| 1777389070 | 16.11° C | 33% | 1030.7 hPa | 0 mm | - | - | - |
| 1777388467 | 16.11° C | 33% | 1030.8 hPa | 0 mm | - | - | - |
| 1777387865 | 16.67° C | 33% | 1030.8 hPa | 0 mm | - | - | - |
| 1777387261 | 16.11° C | 31% | 1030.9 hPa | 0 mm | - | - | - |
| 1777386660 | 16.67° C | 32% | 1031 hPa | 0 mm | - | - | - |
| 1777386056 | 16.67° C | 33% | 1031.1 hPa | 0 mm | - | - | - |
* Rain latest hour (hover to see other rain measurements)
** Current wind speed in m/s (hover to see current wind gust speed)